Hourly Data Report for June 07, 2021

ATIKOKAN (AUT)
ONTARIO
Current Station Operator: ECCC - MSC

48°45'40.000" N
91°37'41.000" W
389.30 m
6020LPQ
71747
WCH

Download Data

Hourly Data (June 2021)
Hourly Data Report for June 7, 2021
TIME
LST
Temp Definition
°C
Dew Point Definition
°C
Rel Hum Definition
%
Precip. Amount Definition
mm

Wind Dir Definition
10's deg

Wind Spd Definition
km/h
Visibility Definition
km
Stn Press Definition
kPa
Hmdx Definition


Wind Chill Definition


Weather Definition


00:00 18.9 11.5 62 0.0 28 2   95.91     LegendNANA
01:00 15.0 12.5 85 0.0   0   95.95     LegendNANA
02:00 12.9 11.4 90 0.0 0 1   96.00     LegendNANA
03:00 11.5 10.8 95 0.0   0   96.09     LegendNANA
04:00 10.6 10.1 97 0.0 0 1   96.17     LegendNANA
05:00 10.9 10.6 98 0.0 6 1   96.22     LegendNANA
06:00 14.9 13.5 92 0.0 0 1   96.27     LegendNANA
07:00 19.5 11.7 61 0.0 27 5   96.36     LegendNANA
08:00 21.0 9.9 49 0.0 27 7   96.39     LegendNANA
09:00 23.1 10.0 44 0.0 27 8   96.46     LegendNANA
10:00 24.4 7.3 34 0.0 25 11   96.46 25   LegendNANA
11:00 25.7 5.6 28 0.0 26 9   96.45 25   LegendNANA
12:00 26.3 5.2 26 0.0 27 8   96.44 26   LegendNANA
13:00 27.0 3.8 22 0.0 28 9   96.43 26   LegendNANA
14:00 27.8 4.7 23 0.0 30 11   96.45 27   LegendNANA
15:00 27.7 4.2 22 0.0 30 6   96.45 27   LegendNANA
16:00 28.4 5.6 24 0.0 31 9   96.45 28   LegendNANA
17:00 28.5 6.6 25 0.0 31 5   96.46 28   LegendNANA
18:00 27.9 3.2 20 0.0 25 4   96.46 27   LegendNANA
19:00 25.5 8.5 34 0.0 29 2   96.52 26   LegendNANA
20:00 19.5 8.7 50 0.0 0 1   96.53     LegendNANA
21:00 16.9 10.5 66 0.0 5 1   96.51     LegendNANA
22:00 15.3 11.6 79 0.0 5 3   96.64     LegendNANA
23:00 14.6 12.1 85 0.0 6 2   96.65     LegendNANA

Notes on Data Quality.

Legend

  • E = Estimated
  • M = Missing
  • NA = Not Available*
  • [empty] = Indicates an unobserved value
Date modified: